Theta_e
335 336 332 329 329 326 318 318 301 311 306 300 299 301 299 306 304 303 305 307 305 308 309 310 309 308 306 307 308 308 309 305 307 300 304 320 331 331 338 337 336 339 338 343 347 347 349 347 350 351 351 351 351 350 350 350 349 349 349 349 349 349 350 349 349 349 349 348 349 349 349 348 348 347 347 347 347 347 346 346 346 347 347 346 346 346 346 345 345 343 343 342 340 338 337 336 335
329 330 330 330 326 320 313 316 304 302 304 300 301 302 301 304 304 303 304 305 306 307 309 310 310 310 309 309 310 309 309 311 311 310 321 326 328 332 337 337 335 338 338 343 348 345 348 350 347 351 351 350 351 351 350 350 349 349 349 349 349 349 349 349 349 350 349 348 348 348 348 348 347 347 346 345 344 344 345 345 346 346 346 346 345 345 345 344 343 342 341 340 338 336 335 334 334
330 328 327 327 322 317 313 312 299 300 298 296 299 301 303 302 302 305 306 306 308 309 309 309 310 309 308 309 306 307 305 314 313 314 315 325 319 329 333 339 333 338 338 343 347 346 348 347 344 350 351 351 350 350 350 349 350 349 349 349 349 349 349 349 349 348 348 348 347 348 347 346 346 345 344 343 343 342 342 343 344 344 345 345 344 344 343 342 341 340 338 337 336 335 333 332 332
332 331 324 324 313 318 308 308 305 300 297 298 298 302 303 302 303 305 307 308 309 309 308 308 307 311 307 305 308 312 309 310 314 314 313 322 329 332 333 336 336 337 339 343 347 346 347 345 343 349 351 351 350 350 350 349 349 349 349 349 348 349 348 348 348 348 348 347 347 347 346 346 345 343 343 342 342 340 341 341 340 340 342 343 342 342 341 340 339 338 337 335 334 333 332 331 330
331 327 325 321 314 309 309 305 302 301 297 300 297 302 303 304 304 305 307 309 310 309 308 308 308 311 312 309 311 306 308 314 314 317 318 329 328 333 333 336 333 336 338 342 345 346 347 344 344 347 351 351 350 350 350 350 349 349 349 349 348 348 348 348 348 347 347 347 346 346 345 345 344 343 341 340 338 338 338 340 338 337 338 340 340 340 339 338 337 336 336 334 333 331 330 329 329
326 325 327 321 310 317 309 300 300 300 303 304 300 302 304 306 305 307 307 309 310 309 309 308 307 308 308 309 311 309 316 307 316 316 321 331 330 332 334 335 329 332 338 341 344 346 347 341 343 347 350 351 350 351 351 350 349 349 349 349 348 348 348 348 347 347 347 346 346 345 345 344 342 341 340 339 339 338 337 337 337 336 337 338 338 337 336 336 335 335 335 333 331 330 329 328 328
325 320 317 316 313 312 302 301 300 301 303 304 302 303 305 306 306 307 307 308 309 309 309 307 310 309 305 311 312 314 318 321 314 327 332 329 331 332 335 330 329 330 337 340 344 346 350 341 345 348 349 350 350 350 351 350 349 349 349 348 348 348 347 347 347 347 347 346 346 345 344 343 342 340 339 337 336 335 334 336 336 336 337 336 336 336 335 334 334 334 333 331 330 328 327 326 326
327 318 316 307 308 305 302 302 301 303 303 304 305 304 305 306 307 307 307 306 306 306 307 309 308 306 307 311 307 318 319 318 323 326 326 324 331 335 335 330 330 329 335 339 343 345 342 341 344 347 349 350 349 350 350 350 349 348 348 348 348 348 348 347 347 347 347 346 345 344 343 342 341 340 338 335 334 333 334 335 335 336 335 334 333 333 334 334 334 333 331 330 328 326 325 325 324
320 314 318 309 303 308 301 300 301 305 304 305 305 307 309 308 308 306 305 308 308 309 308 309 308 304 307 308 308 316 316 319 323 322 322 323 328 335 333 331 329 330 334 337 342 346 348 339 343 346 347 349 350 350 350 349 348 348 348 348 348 348 347 347 347 346 346 344 344 343 342 342 340 339 336 335 334 333 334 334 334 333 333 333 332 333 332 333 332 331 330 328 326 325 324 323 322
315 313 308 307 306 299 301 302 301 303 302 305 304 305 306 307 307 307 306 306 307 308 308 309 309 305 309 306 309 313 316 319 320 320 322 322 326 331 331 333 332 332 335 337 341 344 346 338 339 343 345 348 349 350 349 349 348 348 348 347 347 348 347 346 346 345 344 344 343 342 342 340 338 338 337 335 333 332 333 333 332 332 332 332 332 331 331 331 331 330 328 327 325 324 323 322 321
309 312 314 304 302 300 300 300 301 303 303 306 306 308 308 308 307 306 307 307 309 307 308 308 305 306 307 308 310 326 319 318 315 316 322 321 327 329 330 334 334 334 335 340 342 343 343 345 334 338 342 345 346 348 348 347 349 347 347 347 347 346 346 346 346 345 343 343 342 341 340 340 339 339 337 333 333 332 332 332 332 331 331 331 331 331 331 331 330 329 327 326 324 323 322 322 321
310 308 309 301 299 300 300 299 300 302 304 305 305 307 309 308 307 306 307 305 307 307 308 308 306 309 306 307 310 319 319 316 318 323 322 323 322 329 331 333 336 336 337 340 341 341 342 343 343 335 336 341 342 345 345 345 346 346 346 346 346 346 346 345 344 344 343 343 342 341 342 339 340 339 334 333 332 332 332 332 332 332 332 331 331 331 331 330 329 328 326 324 323 322 322 321 319
309 312 304 302 301 302 301 300 301 302 303 304 304 307 309 307 306 307 306 306 307 306 307 310 311 309 304 306 312 316 313 316 320 322 321 320 322 328 332 332 335 337 337 339 339 339 341 341 343 344 340 332 335 339 340 341 343 344 344 345 344 344 343 343 343 343 343 342 338 339 339 339 338 337 334 332 331 331 332 332 331 331 331 331 331 331 330 329 328 326 324 323 322 321 320 320 318
310 312 308 300 306 302 300 300 302 301 301 304 306 307 307 306 307 308 306 304 305 305 309 312 310 309 305 308 309 311 315 316 317 320 318 321 325 327 331 332 336 336 337 338 337 338 339 340 341 343 344 342 345 336 333 336 339 341 342 342 341 341 341 341 342 341 339 339 337 335 334 334 335 335 334 333 331 331 331 331 331 331 331 330 330 330 330 328 326 325 323 322 322 321 319 318 317
309 314 306 304 301 302 303 299 300 299 299 305 306 306 306 308 308 307 306 304 306 310 310 311 311 307 302 306 306 317 316 317 317 320 322 322 325 327 330 332 334 335 335 335 335 336 337 339 338 342 342 344 344 343 343 340 333 336 338 338 337 338 338 337 336 336 335 334 333 331 330 329 329 329 330 331 331 331 330 329 330 330 330 330 330 329 329 327 325 324 323 322 321 319 318 317 315
315 310 307 302 299 300 302 302 302 301 301 305 306 307 305 307 309 306 307 308 307 312 310 306 311 307 309 307 310 314 314 316 317 320 321 322 324 325 328 330 330 332 333 334 333 335 337 337 338 338 340 342 342 342 342 342 332 330 333 335 335 335 334 334 333 333 329 327 327 326 324 328 326 329 323 328 327 329 327 326 327 329 329 329 329 329 327 326 324 323 323 321 320 318 316 315 312
315 312 303 302 299 301 303 302 302 298 303 304 307 306 303 303 309 309 309 308 306 307 308 311 308 311 308 309 314 313 314 316 319 320 322 321 322 321 324 326 327 329 331 332 332 333 336 336 337 337 338 339 340 341 340 340 339 328 329 328 329 330 330 330 330 326 322 320 322 320 321 330 330 330 329 329 322 329 321 321 326 329 328 328 328 327 326 325 324 323 322 320 319 317 314 312 310
312 304 302 300 301 300 304 303 302 304 302 304 304 306 305 302 306 307 307 307 306 307 307 309 311 311 312 313 316 316 315 314 318 318 319 320 321 320 321 323 324 325 329 330 331 332 333 335 336 336 336 337 339 339 339 340 341 332 337 336 335 331 327 325 330 333 325 332 323 326 330 329 328 328 327 324 326 326 324 318 322 327 328 327 326 326 325 324 323 323 322 320 318 315 311 308 306
307 304 303 299 302 303 307 306 304 303 302 304 305 305 305 304 305 307 303 304 305 305 306 308 309 310 312 313 315 313 314 314 316 315 316 318 319 317 320 322 323 324 326 329 330 331 333 334 335 335 335 336 336 337 339 337 338 334 336 336 334 329 330 331 332 332 332 331 330 330 328 328 327 327 326 325 326 320 324 318 321 324 326 326 325 324 324 324 323 322 321 319 315 311 310 309 304
308 304 300 302 306 306 308 307 305 305 305 304 304 305 305 306 306 308 303 303 304 303 303 305 306 307 309 311 314 313 313 313 315 315 314 315 318 317 317 320 323 323 325 328 329 331 332 333 334 334 335 336 334 336 336 336 336 335 334 334 333 333 333 331 332 331 331 329 330 329 327 328 327 327 322 318 320 324 323 317 319 320 321 321 320 321 323 322 322 320 318 315 309 308 307 305 306
308 305 301 302 305 304 306 306 306 307 306 304 304 305 304 306 307 307 304 302 302 304 307 306 306 307 309 310 312 313 312 312 313 314 314 314 316 318 317 317 321 324 325 328 329 329 331 332 333 334 335 335 334 334 335 335 336 334 333 332 332 330 330 331 330 330 329 329 328 327 327 327 327 326 326 324 324 324 323 323 323 323 322 321 317 320 319 318 317 314 311 308 304 305 306 305 305
309 305 306 305 305 302 307 307 307 307 307 304 304 302 303 308 307 305 304 300 300 304 307 308 308 308 309 309 310 312 312 312 311 312 314 314 314 314 317 318 318 322 326 325 327 328 330 331 333 334 334 335 334 333 332 334 333 331 331 331 330 331 330 329 329 329 329 328 328 327 326 326 325 325 325 324 323 323 322 321 321 321 321 319 318 318 316 315 313 311 306 303 303 305 305 306 305
301 304 305 306 307 304 307 307 306 305 305 304 303 305 307 305 304 306 305 304 306 309 309 309 309 310 310 311 311 311 312 312 311 311 312 313 314 314 314 316 317 318 323 325 326 328 329 330 331 333 333 334 334 333 333 332 330 331 331 331 330 329 330 329 327 328 328 328 328 327 325 325 324 323 322 323 321 320 321 320 320 320 319 318 316 317 315 314 312 306 303 304 304 305 305 306 305
304 299 303 304 305 305 307 306 306 305 305 304 306 307 304 304 301 306 304 307 308 311 311 310 311 311 311 310 310 310 310 310 311 312 313 313 314 315 316 315 316 317 322 324 325 326 327 328 330 331 331 332 332 332 332 331 331 331 331 329 329 328 329 327 328 328 329 327 327 326 324 325 323 320 320 320 319 318 319 320 320 318 319 318 315 318 315 312 307 304 304 304 304 304 304 303 303
303 301 304 305 306 306 307 306 305 306 306 307 306 303 303 304 303 305 303 306 308 309 311 311 311 311 310 310 309 310 310 311 310 311 313 314 316 316 318 318 317 317 317 321 324 324 327 327 328 329 330 330 331 332 330 330 330 330 330 330 329 326 329 329 328 328 327 326 326 325 324 323 321 319 319 318 318 317 320 320 319 318 318 317 315 313 311 307 303 303 304 304 303 302 303 302 302
303 304 305 305 305 306 306 305 305 306 306 305 303 302 304 305 306 303 305 306 308 309 309 310 310 309 309 309 309 309 309 310 311 311 312 314 317 315 316 316 317 316 316 318 321 323 324 327 326 327 328 329 330 330 330 329 330 329 329 329 329 327 328 328 328 327 326 326 325 325 323 322 319 317 317 318 318 318 319 320 318 317 315 314 312 309 307 304 303 303 303 302 302 302 301 302 301
303 303 303 302 303 303 304 303 303 304 304 304 301 301 302 305 303 298 306 307 309 308 308 309 308 307 307 308 309 309 309 309 309 311 312 314 315 316 316 317 317 316 317 317 318 321 324 324 326 326 327 327 328 327 328 328 329 328 329 329 329 327 327 327 326 326 325 325 324 324 323 321 319 317 317 317 317 317 317 317 316 315 313 311 309 307 305 304 303 302 302 301 301 301 301 300 300
303 302 301 301 302 303 303 304 303 304 302 304 303 301 302 303 302 300 304 307 308 306 307 307 307 307 307 308 308 311 310 311 311 312 310 311 312 314 315 315 315 316 316 316 318 320 322 323 324 325 325 326 325 326 326 326 327 327 328 328 328 327 326 326 326 326 324 324 323 323 322 320 318 317 317 316 316 315 315 315 313 312 311 309 307 305 303 303 303 303 304 303 303 302 301 300 301
302 301 296 299 301 300 303 302 303 304 302 302 303 299 298 299 298 304 306 307 307 306 306 306 306 306 307 307 308 308 309 311 311 311 311 312 312 313 314 316 316 316 317 318 318 319 319 322 322 324 325 325 324 324 325 325 325 326 326 326 326 327 325 325 325 325 325 324 322 320 320 320 317 316 315 315 314 314 314 313 312 311 310 308 306 306 305 304 303 303 303 303 302 302 300 300 303
302 300 298 297 298 298 303 305 304 302 302 302 301 291 296 300 303 305 308 307 307 305 305 305 306 306 307 307 307 308 309 309 309 311 312 312 313 313 312 313 315 317 317 318 318 317 319 322 322 323 324 324 325 324 324 324 325 326 326 326 326 325 325 324 324 325 323 323 321 319 319 318 316 315 314 314 313 312 312 311 311 309 309 307 305 304 303 302 302 302 302 301 300 300 299 299 298
297 300 300 295 295 295 303 303 301 299 302 301 301 292 296 300 303 306 307 305 305 303 304 304 305 306 306 307 307 307 308 309 309 310 312 312 311 312 314 313 313 314 316 316 317 317 317 319 321 321 323 323 324 324 323 324 325 325 325 325 324 324 324 324 323 323 323 322 320 317 317 317 316 314 314 313 311 310 310 309 309 308 307 306 304 304 302 301 301 300 299 298 299 298 299 298 297
300 295 293 298 295 297 302 304 301 298 300 301 299 293 295 300 303 306 307 305 304 302 303 304 305 305 306 307 306 307 307 309 310 310 310 311 311 311 312 312 313 312 312 314 316 318 316 317 320 320 321 322 324 323 324 324 324 324 324 320 323 324 323 323 323 322 322 321 319 317 316 316 314 314 312 312 310 309 308 307 308 307 306 304 303 302 301 299 299 300 299 299 297 297 298 297 297
299 295 294 294 297 297 299 303 304 304 301 299 299 294 298 299 304 305 306 305 305 304 304 305 305 306 306 306 307 307 308 308 310 310 311 311 311 311 310 310 312 312 312 312 313 315 315 315 318 318 319 320 321 323 323 324 324 323 323 323 323 323 322 321 322 322 321 320 318 316 316 315 313 313 311 311 309 308 306 306 306 307 305 303 302 301 299 300 300 300 298 299 299 297 298 298 298
296 299 295 297 295 297 295 301 304 305 300 297 298 295 296 299 302 303 304 304 304 303 303 304 305 305 306 307 307 307 307 308 308 309 310 310 311 311 311 311 312 312 311 311 312 312 314 315 316 317 318 319 320 322 322 323 323 323 323 323 322 321 322 321 321 321 320 318 317 316 315 314 312 312 311 310 308 307 306 305 305 305 304 302 301 300 299 300 301 300 297 299 298 298 297 297 297
295 296 296 296 299 298 297 297 301 300 300 297 298 297 297 299 302 303 304 305 304 303 303 304 304 305 305 306 306 307 307 308 308 309 310 310 311 310 310 311 311 312 311 310 311 312 313 314 314 316 316 317 318 320 322 322 322 322 322 322 321 320 320 320 320 319 319 318 316 315 314 313 311 311 310 309 307 306 305 304 304 305 303 301 301 300 299 299 300 299 299 298 299 299 297 298 296
296 297 296 296 294 295 296 300 303 302 299 298 298 296 298 300 301 302 303 305 304 303 304 304 304 305 305 305 307 307 308 307 309 310 313 312 310 310 310 310 311 310 310 309 309 311 311 312 313 314 314 314 316 317 319 319 320 319 318 319 318 318 318 318 319 318 318 317 316 314 312 312 310 310 309 308 307 305 304 304 303 304 302 301 300 299 298 298 299 299 299 298 298 299 299 298 298
299 299 297 295 295 296 299 299 302 303 299 297 297 298 298 298 300 301 303 304 303 303 303 303 304 305 305 306 306 307 306 307 311 312 310 309 309 309 310 309 309 309 308 309 308 309 310 310 311 311 312 312 313 314 315 316 316 316 317 316 315 316 316 317 317 317 317 316 316 314 311 310 310 309 308 307 306 304 304 303 303 303 301 301 300 299 299 300 300 299 298 298 298 297 298 299 299
298 297 296 294 296 294 299 299 302 303 298 296 298 297 297 298 300 301 303 302 301 302 303 303 304 305 306 306 306 306 306 310 310 307 307 308 308 309 309 309 308 307 308 308 308 308 309 309 309 310 311 311 311 312 314 315 316 316 315 315 315 315 315 314 314 315 315 315 315 314 311 310 309 308 307 307 305 304 303 302 303 302 300 300 300 300 301 299 300 299 299 296 298 296 295 298 297
297 295 295 294 295 298 300 301 302 300 296 294 297 295 296 298 299 301 302 302 303 304 304 305 305 307 306 306 305 305 306 305 305 305 307 306 307 306 306 306 306 306 306 306 307 307 308 308 309 309 310 310 310 311 312 313 314 315 315 315 315 314 316 316 315 315 315 314 314 313 311 310 309 307 306 306 304 304 302 301 302 301 300 300 299 299 299 299 299 298 298 295 294 296 295 298 297
295 295 293 292 297 295 293 299 297 297 296 294 296 294 295 298 301 302 303 303 304 305 306 306 307 306 305 304 304 304 304 303 303 304 304 304 305 305 305 304 304 305 305 305 305 305 306 306 307 308 309 309 309 309 309 311 313 314 315 314 314 314 313 314 313 313 313 312 311 311 310 310 308 307 306 305 304 303 302 301 301 301 299 300 299 298 299 299 298 297 298 296 296 292 293 295 297
298 297 295 294 295 297 296 296 299 299 299 300 296 295 296 301 299 300 303 304 303 305 306 307 307 307 307 306 305 304 302 303 302 302 302 303 303 303 303 303 304 303 303 303 304 304 305 305 306 307 308 308 308 308 308 309 310 311 312 312 309 309 310 307 308 308 309 309 309 308 307 309 308 306 306 304 303 303 303 302 301 300 299 299 299 298 299 299 298 298 297 296 296 294 293 295 295
296 299 298 297 298 296 297 297 295 293 293 295 294 289 291 298 299 300 302 302 302 305 305 305 304 304 304 303 302 302 303 303 302 301 301 301 301 301 301 301 301 302 302 303 304 304 304 305 305 306 307 307 307 308 308 308 307 307 307 306 305 304 304 305 304 304 305 305 306 308 308 307 307 306 305 304 303 302 302 302 302 300 299 298 298 298 299 299 298 297 297 296 296 296 295 294 293
293 295 300 299 297 296 296 295 294 288 287 295 297 287 286 296 297 300 301 302 302 304 304 302 302 302 301 301 301 301 301 301 301 301 301 300 300 299 299 299 300 300 301 303 303 303 303 303 304 305 305 305 307 306 307 306 306 306 305 305 305 305 304 306 307 307 307 307 307 306 306 306 306 305 305 304 303 302 302 302 302 300 299 299 298 298 298 298 299 297 297 296 296 296 297 293 293
292 298 299 299 297 295 295 295 293 291 296 297 296 293 288 289 296 301 302 300 301 302 300 300 300 299 299 299 300 300 300 300 300 299 299 299 299 298 298 298 298 299 300 301 301 302 302 302 303 303 303 304 305 305 305 306 304 304 304 304 304 304 304 304 306 306 307 306 306 305 305 305 304 304 304 304 303 302 301 301 301 300 299 299 298 297 297 299 299 299 298 297 297 296 296 295 294
297 297 298 296 295 295 295 294 292 292 291 288 293 295 288 289 296 300 300 297 300 298 298 298 299 299 299 299 299 299 299 299 299 298 298 297 297 298 298 298 299 299 299 299 300 300 301 301 302 302 301 302 303 303 304 304 304 303 303 304 303 304 304 304 305 305 304 304 303 304 303 303 303 303 303 303 303 302 301 300 301 300 299 299 297 298 297 299 298 298 297 296 296 295 295 296 296
300 297 297 297 296 296 295 292 291 291 288 285 291 294 287 289 297 296 299 297 296 296 297 298 297 298 298 298 299 298 298 298 298 297 297 297 297 297 298 298 298 298 299 300 300 300 300 300 300 300 300 301 301 302 302 303 303 303 302 302 302 303 303 304 304 303 303 303 302 302 302 302 301 301 302 302 302 302 301 300 300 300 299 299 297 297 297 298 298 298 297 296 296 295 295 295 295
297 298 296 295 296 294 294 293 291 289 284 287 294 294 292 286 295 297 296 297 298 298 298 297 297 298 297 297 296 296 296 296 296 296 296 296 297 297 297 296 296 297 297 298 298 299 299 299 299 298 298 299 300 300 301 301 302 302 302 302 302 302 302 302 302 302 302 302 301 301 301 301 301 300 300 300 301 301 301 300 299 299 299 298 297 297 296 297 298 299 298 297 296 295 295 295 296
297 294 293 292 292 294 291 290 291 284 284 291 295 294 295 285 292 297 298 300 300 299 298 296 295 295 295 295 295 295 295 295 295 295 294 295 295 295 296 295 295 295 296 296 297 298 298 298 298 298 297 298 298 299 299 299 300 301 301 301 301 301 301 301 301 301 302 301 302 301 301 301 300 300 300 299 299 300 300 300 299 299 298 298 297 297 297 297 297 298 298 297 296 296 296 295 295
294 293 292 287 286 288 285 287 282 284 285 289 292 294 290 289 294 299 300 299 297 298 299 297 295 294 294 294 294 294 294 294 293 293 293 293 293 293 293 294 294 294 294 295 295 296 297 297 297 297 296 297 297 298 298 298 299 299 299 299 300 300 300 301 300 300 301 301 301 301 300 299 300 299 298 298 299 299 299 299 299 298 298 298 298 297 297 297 297 297 297 296 295 295 295 294 294
293 290 290 286 283 282 280 284 286 286 288 289 290 293 287 293 296 300 299 296 297 296 297 296 295 294 293 293 294 293 293 293 292 292 292 292 292 293 293 293 293 293 294 294 295 295 296 296 296 295 296 296 296 296 297 297 298 298 298 298 298 299 299 300 300 300 300 300 301 300 300 300 299 299 299 298 299 299 299 299 299 298 298 298 298 297 297 296 296 296 296 295 295 295 295 294 294
293 297 294 289 287 283 278 282 279 282 285 288 289 287 285 286 292 296 295 296 296 296 295 295 294 293 293 293 293 292 292 292 292 291 291 291 291 292 292 293 293 293 293 293 294 294 295 295 295 295 295 295 295 296 296 295 296 297 297 298 298 298 298 298 298 299 299 299 300 300 300 300 299 299 300 300 300 299 299 299 298 298 298 298 297 297 297 296 296 296 295 295 295 295 294 293 293
297 297 297 290 288 293 284 286 286 286 286 286 287 286 291 292 300 299 296 295 294 294 293 293 292 292 292 291 291 291 291 291 291 290 290 290 290 291 291 292 292 292 292 293 293 294 294 294 295 295 294 294 295 295 295 295 295 295 296 296 297 297 297 298 298 299 299 299 299 299 299 299 299 299 300 300 300 299 299 298 298 297 298 297 297 297 296 295 295 294 293 293 293 294 293 293 293
292 292 288 291 298 294 288 288 289 288 286 283 290 288 292 297 297 297 294 292 292 292 292 292 291 291 291 290 290 290 289 289 289 289 289 289 289 290 290 290 291 291 292 292 292 293 293 293 293 293 294 294 294 294 295 295 295 294 294 294 295 296 296 296 296 297 297 298 298 298 298 299 299 299 299 300 300 299 298 298 297 297 297 297 296 296 295 295 294 294 293 292 292 293 292 292 292
295 287 293 296 298 296 290 282 285 284 280 282 288 284 287 287 284 293 293 290 290 291 290 291 291 291 290 289 289 289 289 289 289 290 289 289 289 289 289 290 290 290 291 291 291 292 292 293 292 292 292 292 293 294 294 294 294 294 294 294 294 294 294 295 295 296 296 296 297 297 298 298 298 299 299 300 299 299 298 297 297 296 296 296 295 295 295 294 294 293 293 292 292 292 292 292 292
295 292 298 290 285 284 289 285 277 278 277 280 284 286 286 288 288 292 290 290 289 289 290 290 289 289 289 289 289 289 290 290 289 289 289 289 288 288 288 288 289 290 290 291 291 291 291 291 291 292 291 292 292 293 294 294 295 294 294 294 294 293 293 293 294 294 295 295 295 296 296 296 297 297 297 297 297 297 296 296 295 295 295 295 295 294 294 294 293 292 292 292 292 292 291 291 291
297 296 293 298 291 286 285 286 286 285 278 279 279 284 282 292 291 292 290 290 290 289 289 288 288 289 288 289 288 289 288 288 288 288 289 288 288 288 287 287 287 288 289 290 290 290 289 289 289 290 291 291 291 291 292 292 293 293 293 293 293 293 293 293 293 293 292 292 293 293 294 294 295 295 296 296 295 295 295 295 295 294 294 294 294 293 293 293 292 292 292 291 291 291 290 290 290
290 289 288 291 288 292 291 290 286 282 280 280 279 278 284 291 291 292 290 290 291 290 289 289 288 288 288 287 287 287 287 287 287 287 287 286 286 287 287 287 288 289 289 290 290 289 289 289 289 289 289 289 289 290 291 291 291 291 291 291 292 292 292 292 292 292 291 291 292 292 293 293 294 294 294 294 294 294 294 294 294 294 293 293 293 292 292 292 292 291 291 291 291 290 289 289 290
293 292 288 291 287 284 281 279 290 286 283 280 279 277 286 292 292 291 291 291 291 291 290 289 288 287 287 287 286 285 285 285 285 285 285 285 285 285 286 286 287 287 287 287 289 289 288 288 288 288 288 288 288 289 289 289 290 290 289 290 290 290 291 291 291 291 290 291 291 291 291 292 292 293 293 293 293 293 293 293 293 293 293 293 292 292 292 292 291 290 290 291 290 289 289 288 289
Wind_Speed
7 5 3 4 4 5 6 4 6 5 4 4 6 1 4 2 4 5 4 1 2 5 5 4 4 4 6 6 9 9 8 8 6 6 5 2 3 4 5 5 3 6 12 10 11 13 13 12 11 13 15 16 15 15 15 13 13 12 12 11 11 11 11 11 10 10 10 9 9 9 10 9 10 9 10 9 9 9 8 7 7 7 7 8 7 7 7 7 7 7 9 9 9 8 8 7 7
4 4 4 4 4 4 3 3 4 6 5 6 1 1 6 4 4 3 4 4 5 5 5 5 4 6 7 9 8 9 11 11 8 7 2 4 6 4 7 5 5 8 11 10 10 12 12 13 10 11 16 16 16 16 15 14 13 13 12 12 11 11 11 11 11 10 10 9 9 10 11 11 10 10 9 8 7 7 7 6 7 6 8 8 7 7 7 6 6 7 8 8 8 8 7 7 7
3 5 3 4 5 5 5 4 5 4 5 5 3 5 2 1 2 3 5 5 5 3 3 4 4 5 7 7 8 6 3 3 3 2 4 6 4 5 8 6 6 7 11 9 10 12 11 14 9 11 16 15 16 16 15 15 14 13 12 12 12 11 11 11 11 11 10 10 9 10 10 10 9 9 7 7 6 5 5 5 5 6 7 7 7 6 5 4 4 6 8 8 8 8 7 7 7
5 3 5 2 4 3 5 4 6 6 5 4 2 5 3 3 4 4 3 3 4 3 3 3 4 5 5 7 5 4 10 7 4 4 2 3 4 4 7 8 6 6 9 7 9 11 11 14 11 10 14 15 16 15 15 14 14 13 13 13 12 11 11 11 11 10 10 10 11 10 10 10 9 8 7 6 6 5 5 5 3 3 3 5 6 5 4 3 4 6 7 8 8 8 7 7 7
5 3 3 4 5 4 3 4 5 4 6 5 6 5 5 2 4 5 5 3 4 3 3 2 5 4 4 8 5 5 4 2 3 2 1 4 2 3 8 8 8 7 9 9 10 11 11 18 14 10 12 16 16 15 14 13 14 14 12 12 12 12 11 11 11 11 11 11 11 10 10 9 8 7 5 4 3 1 2 4 4 2 2 2 3 4 4 3 3 6 7 8 8 8 8 7 7
4 3 3 4 3 4 4 5 6 6 5 3 5 5 6 5 5 5 7 6 2 3 3 5 6 5 3 5 5 6 3 5 2 1 2 3 2 2 8 8 8 8 9 10 10 9 9 19 16 13 12 16 16 14 13 13 14 14 13 13 13 12 11 11 11 11 11 11 11 11 10 9 7 7 5 5 6 6 5 5 3 4 4 2 1 3 3 3 3 6 7 8 8 8 8 8 7
3 4 3 4 3 2 4 5 6 5 3 3 4 6 6 7 6 6 7 6 5 1 2 4 2 5 8 4 6 10 7 2 3 2 3 4 2 3 8 8 8 9 9 10 10 10 11 16 14 13 10 13 15 14 12 13 15 15 13 14 13 13 12 12 12 12 12 12 12 11 9 8 7 6 6 3 3 5 2 5 5 5 4 4 4 4 4 4 5 6 7 8 8 8 8 8 7
3 4 1 4 3 3 5 5 6 4 1 2 4 7 7 7 8 6 7 6 1 2 6 5 4 2 8 4 6 5 3 2 2 5 4 3 4 4 7 8 8 10 10 11 10 8 14 15 14 13 10 12 13 12 14 14 15 14 14 14 14 14 14 12 13 12 13 12 11 9 9 8 7 8 5 5 4 3 4 6 6 5 5 5 5 5 5 5 6 7 7 8 9 8 8 8 7
2 5 1 4 6 4 5 6 5 2 6 2 4 5 6 6 5 6 7 3 5 3 3 5 5 5 4 2 7 6 4 5 5 5 3 4 4 6 6 8 8 8 10 11 10 9 9 13 14 12 10 11 13 13 15 16 16 15 14 14 15 14 15 14 13 13 12 11 10 10 9 9 8 7 8 7 5 6 6 6 7 7 6 6 6 6 6 6 6 7 7 8 8 8 8 8 7
3 4 2 4 5 6 5 4 4 3 5 3 6 7 7 5 5 4 5 6 2 3 0 3 3 9 9 10 8 4 4 5 5 3 4 4 4 6 7 8 8 8 10 10 10 10 8 10 11 12 10 11 13 14 17 15 15 16 15 15 15 14 14 12 12 9 10 10 10 9 9 6 5 9 9 9 6 6 7 8 7 7 7 7 7 7 7 6 7 7 7 8 8 8 8 8 8
4 3 2 5 5 5 5 5 6 5 3 2 6 3 2 2 2 3 4 6 3 5 2 3 5 11 8 9 7 4 6 6 4 2 6 5 4 5 6 7 6 8 10 10 9 9 9 9 9 9 9 11 13 14 15 14 14 15 14 13 13 11 11 10 10 11 10 9 8 10 8 8 7 10 9 7 7 6 8 8 8 8 8 8 7 7 7 7 7 7 7 7 8 8 8 8 8
4 3 3 5 6 5 6 7 8 7 9 5 3 4 2 0 1 4 2 6 2 5 7 9 2 4 8 8 6 4 6 4 3 5 5 4 4 5 5 5 6 7 8 10 9 8 8 9 9 8 8 9 12 13 13 13 14 14 13 11 11 10 10 11 8 7 8 7 7 7 7 10 11 11 8 8 7 7 8 9 9 9 8 8 7 8 7 7 7 8 8 8 7 7 8 8 8
5 3 5 6 5 5 7 8 5 6 10 2 3 4 3 3 4 3 5 6 8 8 9 10 2 2 7 7 4 6 6 6 6 6 4 3 3 4 4 4 6 7 8 9 9 9 9 9 12 11 9 8 8 12 13 12 13 13 13 13 11 9 9 7 7 7 7 7 6 5 4 5 5 6 9 8 8 8 9 9 9 9 9 9 9 8 8 8 8 8 8 8 8 8 8 8 8
5 3 5 7 2 7 8 7 7 4 6 4 3 5 2 4 3 5 4 9 9 9 4 4 3 4 12 10 9 7 5 6 5 4 3 2 1 3 4 4 5 7 8 9 10 9 9 11 12 14 12 9 10 8 10 11 12 12 12 13 12 10 9 8 8 8 7 7 6 6 4 3 5 5 7 7 9 9 10 9 9 10 10 9 10 9 9 9 9 9 9 8 8 9 8 9 9
4 2 4 5 7 6 6 6 6 7 8 5 5 2 3 6 5 4 6 8 7 6 1 2 5 1 4 3 4 7 4 5 4 4 3 2 2 2 4 3 4 6 7 9 10 10 11 12 13 13 14 14 14 12 11 8 12 12 12 12 12 11 9 9 8 7 7 6 6 5 5 6 6 6 5 6 8 8 7 7 8 10 10 10 10 10 10 9 9 9 9 9 9 9 9 9 9
4 3 4 6 7 6 2 4 2 5 2 4 5 2 3 8 7 6 4 3 8 9 1 7 8 8 11 13 9 5 6 5 5 4 4 4 3 3 4 5 5 7 7 8 10 10 11 13 12 13 13 15 14 13 13 12 10 11 11 11 12 11 9 9 8 7 8 8 6 7 8 7 6 5 5 5 6 8 7 8 7 9 10 11 10 10 10 10 10 9 9 9 9 9 9 9 9
3 3 6 6 8 6 1 4 1 6 8 10 7 3 6 8 4 5 3 3 9 12 11 11 9 8 15 14 1 6 7 6 5 6 5 4 4 4 5 5 6 7 7 10 10 10 12 13 15 12 15 16 16 14 13 14 11 11 9 10 12 11 10 9 8 9 8 7 8 8 9 7 7 6 5 8 7 8 7 8 8 9 11 10 10 10 10 10 10 10 10 10 10 10 10 10 9
3 5 6 8 7 9 5 6 7 8 9 9 8 4 6 11 6 3 2 9 11 13 14 15 13 14 15 12 5 6 8 7 7 6 6 5 5 5 6 7 7 9 9 9 12 12 12 13 15 15 12 16 15 13 10 10 8 14 12 9 9 9 9 9 8 8 8 7 9 8 7 8 8 8 9 10 9 10 7 7 8 7 10 10 9 10 10 10 10 10 10 10 11 11 10 5 5
6 6 7 9 7 8 6 7 8 10 10 11 11 12 10 11 9 7 9 11 10 14 15 14 14 15 16 16 9 9 8 7 8 8 8 9 8 9 8 7 9 9 10 9 10 14 12 12 14 16 15 14 16 15 9 11 10 9 12 12 9 10 10 10 10 10 9 10 8 8 9 8 9 8 8 9 8 10 9 8 7 7 8 8 8 9 10 10 10 10 10 9 9 9 4 3 4
8 7 9 9 9 11 9 6 11 10 11 12 12 11 10 10 11 7 10 13 11 13 14 13 14 13 11 9 12 12 9 10 9 9 11 12 11 11 11 10 10 11 12 11 10 11 13 12 15 15 16 15 15 14 11 11 12 9 10 12 12 10 10 9 11 11 11 13 10 10 10 9 9 8 8 11 7 8 7 8 8 7 8 7 8 7 8 9 9 8 8 8 6 4 3 3 4
2 7 8 8 9 9 8 8 9 9 9 11 12 12 14 13 10 7 7 12 11 13 15 15 16 14 12 11 12 6 11 10 10 11 12 12 13 11 11 11 10 10 10 9 9 11 15 14 13 14 15 15 16 13 12 13 10 10 12 13 13 12 13 12 11 11 11 12 13 11 11 9 9 9 8 7 9 8 8 8 7 7 7 7 8 7 7 6 6 5 5 5 4 4 3 3 3
4 10 11 13 13 14 9 8 9 6 4 9 12 13 13 10 6 10 12 14 12 10 13 15 18 18 17 16 14 10 8 9 11 12 13 14 14 14 12 12 11 9 8 10 11 12 14 15 14 13 15 16 15 14 16 12 12 14 13 13 13 12 11 12 12 11 11 12 12 10 11 10 10 9 8 9 9 9 8 9 9 8 8 8 9 6 6 7 6 5 5 5 4 3 3 2 2
8 11 13 14 14 14 11 11 2 1 10 11 12 11 12 12 14 13 14 16 16 16 17 19 19 19 18 16 13 11 11 12 14 15 15 14 15 15 14 12 11 10 9 10 10 10 12 14 15 13 13 14 16 14 12 12 14 13 12 13 12 13 11 12 12 11 11 12 12 11 11 11 10 10 9 10 10 9 9 9 9 9 9 8 9 7 7 7 6 5 5 4 3 3 3 2 2
9 13 12 14 10 13 12 13 0 5 10 13 12 13 15 14 19 13 15 15 16 17 19 20 20 19 18 16 13 13 14 14 15 15 15 15 15 15 14 13 11 9 9 10 10 9 10 14 15 14 13 13 13 14 14 13 12 13 12 12 11 12 11 12 11 11 11 12 13 12 12 10 10 10 9 10 10 9 9 9 9 9 9 8 9 7 7 6 5 5 5 4 4 3 3 3 2
11 12 12 12 11 11 12 11 11 10 11 12 12 14 18 15 16 18 22 17 19 18 18 19 18 17 15 14 14 13 14 14 15 16 13 12 12 13 10 9 10 10 11 11 9 10 11 11 15 16 14 15 13 13 14 12 12 12 13 14 13 11 11 10 10 11 11 11 12 12 14 11 10 10 9 10 9 9 9 9 9 8 8 8 9 7 7 6 6 5 5 5 4 4 4 3 3
11 15 14 12 13 11 11 13 13 11 9 8 10 15 17 16 16 21 24 20 19 18 18 18 17 15 13 13 13 13 13 14 13 14 14 10 10 11 11 10 9 11 13 10 10 10 10 12 15 16 16 14 13 13 12 12 11 12 14 14 11 10 11 10 11 10 10 10 11 14 14 11 10 10 10 9 10 10 9 9 9 8 8 7 8 7 7 6 6 5 5 5 5 4 4 4 3
5 8 8 12 14 15 15 16 17 14 14 11 10 14 16 13 8 14 10 8 4 7 10 10 13 15 15 13 11 11 13 14 14 13 12 9 9 8 9 8 10 12 10 12 11 10 10 12 13 15 16 14 12 12 12 13 12 12 12 11 11 11 11 10 10 10 10 10 11 13 14 12 10 10 10 10 9 10 9 9 9 8 8 7 7 6 6 6 6 6 6 6 5 5 4 4 3
9 9 11 16 17 17 18 17 18 11 11 11 13 14 14 15 10 17 16 13 12 11 11 12 13 14 15 16 14 11 12 12 11 11 14 12 7 6 8 8 11 11 11 12 11 10 11 14 14 15 16 15 14 14 12 12 12 12 11 11 11 11 12 11 10 10 11 10 12 13 12 11 10 10 10 10 10 10 9 9 9 8 8 7 7 6 6 6 5 5 5 4 5 4 4 4 3
8 6 10 14 15 15 18 16 17 13 9 4 4 9 13 14 12 20 18 16 13 12 13 14 15 14 15 15 14 13 13 13 11 11 11 9 8 8 10 10 10 11 10 12 12 12 13 13 13 15 16 15 16 16 13 12 12 11 11 11 10 10 11 11 11 11 11 10 11 12 12 12 11 10 9 10 10 9 9 9 9 8 7 7 7 7 7 5 5 5 5 4 4 4 4 4 3
6 10 11 13 13 13 15 10 3 5 5 7 6 8 5 8 13 14 12 9 8 8 11 15 15 15 14 14 13 14 14 14 13 11 9 8 8 10 12 11 10 10 8 8 11 12 10 8 9 10 13 16 16 15 13 12 12 11 10 10 9 10 10 10 10 10 10 10 10 11 12 12 11 10 9 10 9 9 9 8 9 8 7 8 7 7 7 6 6 6 6 5 5 5 5 4 4
9 9 3 8 10 10 8 5 7 6 8 9 8 11 9 12 14 13 9 3 8 11 15 19 18 17 15 13 14 15 17 14 15 14 11 11 10 8 10 11 11 11 7 7 9 11 12 9 8 9 11 14 13 14 14 12 11 11 11 10 10 10 10 10 10 10 10 10 10 10 12 12 12 11 10 9 10 9 8 8 8 8 8 8 7 7 7 6 6 7 6 7 6 5 5 5 5
9 8 9 8 9 7 7 4 10 8 5 9 8 10 9 9 8 8 9 4 5 11 15 19 18 16 16 15 15 16 15 13 11 11 11 11 8 8 8 10 10 10 11 9 8 8 11 11 10 10 11 15 14 14 13 12 11 11 10 10 9 11 10 10 10 10 10 10 10 9 12 12 12 12 11 10 9 9 8 8 8 8 9 8 7 7 7 7 7 6 7 7 7 6 6 5 5
10 12 12 11 11 12 11 7 7 11 2 10 12 12 11 12 11 10 14 18 19 19 20 21 21 20 17 15 13 12 11 10 7 8 7 7 8 9 9 9 7 8 8 9 8 7 9 11 10 12 12 14 14 13 13 12 10 10 10 10 10 10 10 10 10 10 10 10 9 9 11 11 11 12 11 10 9 10 8 8 8 9 8 8 8 8 8 7 7 6 7 6 6 7 7 6 5
9 9 11 10 12 11 10 7 11 2 7 8 13 12 13 15 14 16 17 18 17 16 19 21 19 16 16 14 13 11 10 9 8 5 7 9 9 12 10 9 9 8 7 7 8 7 7 7 8 9 9 10 11 11 12 11 10 9 9 9 10 10 9 9 9 9 9 9 9 9 10 11 10 12 11 10 9 9 8 8 8 9 9 8 8 8 8 7 7 7 8 7 7 7 7 7 7
10 10 12 12 12 11 15 13 5 4 9 11 11 16 16 15 14 14 16 16 17 17 19 18 18 17 17 15 12 11 8 5 7 7 9 10 11 11 10 10 9 8 6 6 5 5 5 5 5 6 7 7 9 9 9 10 9 9 8 8 8 9 8 8 8 9 9 8 9 9 9 10 10 12 11 11 10 9 9 8 8 9 8 8 8 8 8 8 8 8 8 8 6 6 6 7 7
16 15 13 14 14 13 13 13 14 15 17 16 17 16 16 16 14 14 16 17 18 19 18 15 16 17 17 13 9 6 5 6 5 7 7 9 10 10 10 10 9 8 7 6 6 3 3 4 4 3 5 7 7 7 7 7 7 8 8 8 8 8 8 8 9 9 8 9 9 9 9 9 10 11 11 11 11 10 9 8 8 8 8 8 8 9 9 9 10 10 9 10 9 5 4 6 6
17 15 13 15 16 16 14 16 14 13 14 12 13 15 16 16 16 16 18 19 18 17 16 15 16 16 15 10 3 7 5 4 5 6 11 12 12 11 10 10 11 11 10 9 7 5 3 3 3 4 4 6 6 7 7 7 8 8 8 9 9 8 8 9 8 9 9 8 9 10 10 9 10 10 11 10 10 9 8 8 8 8 8 8 8 9 9 9 9 9 8 8 10 7 5 6 7
14 15 15 15 13 16 13 16 12 13 11 11 11 15 16 15 16 19 20 18 17 14 15 15 17 17 6 7 6 5 4 3 6 11 12 13 13 15 13 11 12 13 12 12 10 9 6 5 4 3 3 5 6 7 6 7 7 7 7 8 8 7 8 8 8 8 8 7 8 8 8 8 9 9 9 10 10 10 9 9 8 8 9 8 8 8 9 8 9 9 8 7 7 10 7 8 8
15 13 12 13 12 14 16 17 12 4 1 11 12 16 15 17 21 22 18 14 12 13 13 17 15 8 7 5 5 5 7 10 11 11 12 13 16 16 14 13 13 13 12 13 13 12 10 7 5 4 2 3 4 6 6 6 6 7 7 6 6 6 6 6 7 7 7 8 8 7 7 7 8 8 8 9 8 9 9 9 8 8 10 9 9 9 10 10 10 11 11 9 8 7 6 7 9
10 10 10 12 11 11 11 5 6 4 4 10 13 16 13 17 19 17 10 8 11 10 16 18 6 3 5 6 7 9 11 11 12 12 12 14 15 14 14 14 14 12 11 12 14 14 10 10 9 7 5 3 3 4 5 5 5 5 5 6 4 5 4 4 5 5 6 7 7 6 6 7 8 7 8 9 8 8 9 10 8 8 10 10 10 10 11 11 11 10 11 11 10 9 8 8 9
10 11 10 13 14 13 13 13 14 15 15 11 10 12 11 8 5 5 5 4 7 11 18 6 7 7 8 11 12 13 14 12 11 12 14 15 16 16 15 15 13 13 13 13 13 13 10 13 12 10 7 5 3 3 3 4 4 4 3 3 1 2 3 2 4 6 7 6 6 7 8 8 8 8 8 9 9 9 9 9 8 8 9 10 9 9 10 11 12 12 14 12 13 11 10 6 9
10 11 13 16 15 16 14 15 13 9 8 6 10 11 5 2 1 5 3 6 7 14 14 7 9 10 11 13 13 14 14 13 12 13 14 14 14 15 17 17 17 15 15 13 12 14 14 13 13 11 8 7 6 5 3 3 4 4 4 5 5 6 7 7 8 8 7 8 9 7 7 9 10 9 9 10 10 9 9 9 8 8 9 9 10 10 9 9 12 13 14 13 14 13 11 8 8
9 6 4 6 8 9 12 11 7 6 6 1 4 5 10 4 11 11 11 9 13 14 7 13 12 11 13 13 12 11 13 11 12 14 14 15 15 17 18 17 16 15 14 12 12 14 15 14 13 12 9 8 7 7 6 4 5 5 6 7 6 7 7 6 6 6 6 6 6 8 8 9 10 10 10 10 11 12 11 10 9 9 9 9 10 10 10 12 11 13 12 13 13 12 10 11 12
9 4 4 4 8 8 8 7 6 10 9 13 9 8 10 12 8 9 5 11 15 2 13 13 12 13 14 15 13 12 12 12 12 13 14 14 16 16 16 15 14 14 13 12 13 14 16 15 15 14 11 9 9 8 7 5 5 5 6 7 6 7 7 8 7 5 5 5 5 6 7 7 8 10 10 10 10 11 11 11 11 10 10 10 9 11 11 10 7 10 12 14 11 13 13 12 11
3 2 4 4 4 8 6 5 7 8 10 10 4 9 6 8 5 3 8 12 8 11 12 13 13 13 14 14 14 13 13 14 14 13 14 14 15 15 13 14 13 12 12 13 14 14 14 14 14 14 13 11 10 11 8 7 5 6 6 6 6 6 7 7 6 6 4 4 5 5 6 6 7 9 10 10 10 11 10 11 11 11 11 11 10 9 11 10 12 12 13 13 14 13 12 12 10
3 1 1 2 3 4 6 7 8 8 6 13 5 10 6 11 6 6 5 5 3 12 11 12 15 13 11 11 12 13 13 13 14 14 12 12 13 13 13 12 12 10 11 13 14 14 14 13 14 15 15 11 11 12 10 9 8 6 6 7 8 8 7 6 6 6 6 5 6 6 6 6 6 7 9 10 10 11 10 11 11 12 12 12 10 11 12 11 11 13 15 15 15 14 12 13 13
2 2 6 7 7 7 7 5 6 4 10 11 8 15 8 9 4 4 6 1 5 10 10 12 13 14 14 13 13 12 13 13 11 10 11 12 11 10 10 11 12 13 12 14 14 13 12 13 13 15 14 12 12 12 12 11 9 8 7 8 9 9 8 8 8 7 6 6 6 6 6 6 6 6 7 9 10 10 11 11 11 11 10 10 11 11 13 12 10 10 11 14 15 15 13 14 13
1 4 4 6 8 7 4 4 4 4 10 6 3 10 11 5 3 4 4 7 8 6 8 12 12 13 12 11 10 11 12 11 10 9 10 10 10 12 12 14 15 15 15 15 13 13 12 12 13 14 14 14 12 12 12 12 10 9 9 9 9 9 9 7 8 8 8 8 8 7 6 5 6 6 7 7 9 10 10 10 11 11 10 11 12 9 11 11 10 9 9 10 12 14 13 12 13
4 5 4 5 6 4 7 5 5 7 8 3 1 2 5 13 12 8 5 8 12 10 7 13 14 13 12 12 11 10 10 10 10 10 9 9 10 12 14 14 14 15 14 15 14 12 11 12 14 14 14 14 12 12 12 13 11 11 10 10 10 9 8 8 8 8 8 8 7 7 7 6 5 6 7 8 8 10 9 9 9 11 11 11 11 11 11 13 12 11 11 13 14 15 15 15 13
6 5 4 4 7 7 10 8 7 10 0 3 2 1 9 10 11 12 8 11 11 13 14 13 14 13 12 10 9 10 10 10 10 10 10 11 11 12 13 13 12 12 13 12 12 11 10 10 12 13 13 13 13 12 13 13 12 12 11 10 10 9 9 8 8 7 7 7 7 7 7 7 7 7 7 8 8 8 9 9 10 10 10 10 11 12 11 12 12 12 12 13 15 14 14 16 14
10 7 6 6 8 6 9 6 11 9 9 2 4 3 4 3 4 16 16 11 14 13 13 13 13 12 11 9 10 10 11 10 9 10 11 11 12 12 11 11 10 10 11 10 9 10 9 9 10 11 11 12 13 13 12 13 11 12 11 10 9 9 9 8 8 7 8 8 7 8 8 7 7 8 7 6 6 8 8 8 9 9 10 10 10 11 10 11 12 12 12 13 12 12 13 14 14
3 2 2 4 8 5 12 6 9 8 9 8 4 5 4 5 5 9 13 13 13 12 13 13 12 10 9 9 9 9 9 9 8 9 10 11 11 10 9 9 9 8 9 8 9 8 8 8 8 9 10 11 13 13 12 11 11 10 11 12 11 10 9 8 8 7 8 8 8 8 8 8 7 8 8 7 6 6 7 8 9 9 9 10 10 10 10 10 10 11 12 11 13 10 12 15 14
2 2 4 5 4 4 6 6 6 9 10 15 6 12 13 9 13 6 14 15 12 11 11 11 10 9 8 8 7 7 7 7 7 7 7 8 9 9 8 9 8 9 8 9 9 8 8 7 8 10 12 13 13 12 11 11 10 11 11 11 11 11 10 10 9 10 9 8 8 8 8 8 9 8 7 6 6 6 6 7 8 9 9 9 9 9 9 9 10 11 12 12 13 11 12 14 13
3 4 4 3 1 3 4 11 9 12 15 11 7 12 12 6 8 8 9 13 10 9 10 9 9 7 9 7 7 6 6 6 6 6 6 6 6 7 7 7 8 9 9 9 10 8 7 7 10 12 13 14 12 11 10 10 10 10 10 10 10 10 10 10 10 10 9 8 8 8 8 8 8 7 7 6 5 6 5 7 7 7 7 8 8 9 9 9 9 10 12 12 12 10 12 12 12
7 5 5 4 4 6 7 3 6 10 13 10 11 15 14 14 13 5 9 10 9 8 7 7 8 7 7 6 6 5 5 5 5 5 5 5 5 6 6 7 8 8 9 9 9 9 10 10 11 11 12 11 11 9 9 9 10 8 8 9 10 9 9 9 9 10 10 9 9 9 9 9 8 8 8 7 5 5 6 6 7 7 7 8 8 8 8 8 9 10 10 10 11 11 12 13 13
3 2 5 3 3 6 11 8 7 7 12 10 12 10 11 11 5 7 11 9 9 7 6 6 5 5 4 4 4 4 4 5 4 4 5 4 5 5 6 6 7 7 7 7 8 9 11 11 11 10 10 9 9 10 10 10 10 9 10 9 10 9 9 9 9 9 9 9 9 10 10 10 9 8 7 7 7 6 7 7 6 7 8 7 7 8 8 9 9 10 10 9 10 12 13 14 12
6 5 7 5 3 2 4 5 9 10 12 11 10 11 10 2 5 4 9 8 7 7 6 5 4 3 4 3 3 3 3 3 3 3 3 4 5 5 5 5 6 6 6 6 6 8 8 9 9 10 10 9 9 8 8 7 8 8 10 11 11 11 12 10 11 10 9 9 8 8 8 8 9 8 7 8 7 7 8 7 7 7 7 7 8 8 8 8 9 10 10 11 10 11 13 13 12
7 5 7 8 9 9 10 11 7 6 10 13 12 14 7 3 3 6 5 6 6 5 7 6 5 4 3 2 1 1 1 3 3 3 3 3 3 4 4 4 4 4 5 5 6 6 7 8 8 8 8 8 8 8 7 6 6 7 8 9 9 9 9 9 10 9 10 10 10 9 9 8 8 8 8 8 9 8 7 7 7 7 7 7 8 8 8 8 9 10 11 9 9 11 12 13 12
Wind_Direction
267 230 276 271 265 263 291 239 280 162 229 266 281 299 63 347 26 296 248 42 219 74 21 347 296 268 270 351 325 328 314 301 332 301 351 84 130 137 173 140 166 156 160 160 149 154 163 173 180 177 178 177 180 180 176 176 177 178 178 180 185 184 186 184 184 184 188 183 176 170 160 151 142 136 127 119 109 102 100 102 110 116 119 125 126 121 112 109 117 112 107 101 95 88 84 82 78
276 298 264 260 262 275 208 349 276 272 237 266 168 331 51 23 249 251 318 18 23 6 353 320 298 277 266 286 298 304 276 236 270 322 67 107 146 158 167 151 163 164 165 162 151 159 167 171 184 182 182 180 181 181 177 177 178 180 182 185 186 189 191 187 188 187 187 185 177 166 157 149 145 140 129 120 115 115 113 105 113 123 127 123 114 108 106 116 121 116 104 103 99 95 90 86 79
308 285 246 228 238 249 301 231 275 307 307 292 72 79 64 253 338 29 17 17 5 2 333 301 291 261 254 245 267 253 340 32 307 281 307 135 218 120 162 158 166 171 166 164 159 163 168 172 183 188 184 185 185 183 177 180 182 184 183 185 190 192 193 190 189 188 189 176 172 164 157 149 146 143 140 137 130 115 120 118 101 116 120 121 110 97 101 124 117 108 104 101 97 95 93 85 83
284 285 284 249 245 195 261 220 256 289 300 327 291 92 5 336 349 351 347 357 337 318 306 279 276 107 261 242 268 304 261 281 67 348 286 103 43 125 159 161 157 177 165 169 166 166 174 158 177 191 188 186 188 186 182 182 184 186 186 185 189 192 194 191 189 186 183 170 166 164 158 155 149 146 152 142 136 145 142 113 72 31 136 129 115 112 114 112 115 105 102 101 98 93 88 86 82
266 239 263 266 280 241 259 282 297 295 272 11 325 360 65 356 315 336 329 345 293 282 273 279 268 150 273 290 320 274 27 315 94 62 18 79 93 102 150 157 167 175 170 176 172 168 178 149 169 190 191 189 189 188 184 184 184 186 183 186 189 190 194 192 189 184 175 171 164 162 158 155 154 152 155 158 96 157 155 157 196 189 261 332 206 149 136 139 131 112 105 102 100 95 89 85 82
257 254 194 259 271 8 274 253 224 230 274 326 299 327 346 7 336 346 314 306 308 290 255 246 275 321 226 215 218 237 360 306 66 228 286 92 96 136 157 161 177 180 171 178 175 170 171 150 162 182 196 191 191 189 185 184 185 183 179 184 188 188 188 189 183 177 171 168 163 163 163 158 163 159 164 171 175 198 200 230 211 211 225 141 171 174 176 170 165 117 110 104 101 97 92 89 86
253 229 181 218 220 233 270 275 290 311 45 26 306 307 325 330 343 324 309 306 119 220 182 230 293 269 260 226 206 241 258 51 283 70 20 110 120 174 154 175 181 185 173 177 180 177 147 154 157 175 198 195 191 190 184 184 186 180 178 183 183 183 179 181 175 172 167 167 170 172 167 170 172 190 177 174 118 310 163 230 223 213 184 194 178 194 176 195 151 123 114 108 102 98 96 94 91
275 278 98 253 222 200 242 263 278 284 48 28 332 296 299 320 324 309 304 300 136 272 164 237 230 272 283 115 279 109 101 183 132 118 120 128 122 163 169 179 184 187 179 178 179 174 130 154 163 176 194 194 189 185 184 184 185 180 180 179 181 178 176 174 172 170 173 178 184 182 181 187 191 212 185 145 154 200 204 220 214 207 202 203 199 198 191 186 135 121 116 112 106 104 101 97 95
219 258 106 264 253 202 267 266 291 254 284 277 282 273 278 287 309 306 291 282 286 253 234 220 212 256 88 189 246 132 153 135 131 115 134 135 162 163 180 190 188 184 181 179 177 173 142 148 164 176 195 197 186 181 185 187 185 181 179 180 180 177 178 172 176 180 187 187 192 194 198 201 191 170 145 158 180 194 204 211 210 209 209 211 206 200 190 177 138 130 125 120 116 113 109 107 104
210 261 210 269 321 275 266 269 245 62 316 345 303 304 304 298 284 286 304 290 335 314 233 36 239 238 293 296 296 195 138 151 143 169 184 175 169 175 183 195 195 185 181 181 183 179 156 147 162 182 194 196 182 180 184 186 183 181 182 179 183 177 179 179 178 185 192 191 196 208 215 218 193 167 187 207 169 200 211 218 209 205 206 206 202 193 190 166 145 134 126 122 120 115 113 111 111
236 188 312 270 243 269 286 323 339 326 313 319 285 286 297 294 303 288 277 296 273 290 124 173 231 241 259 271 270 86 119 148 170 191 164 168 169 180 191 189 197 189 185 187 182 181 164 158 166 188 195 190 176 178 181 179 180 180 179 182 183 184 185 184 186 185 191 205 205 218 212 212 203 197 210 151 176 201 214 217 210 206 203 200 198 189 179 153 144 138 132 125 120 118 112 108 104
249 216 186 276 290 306 322 323 315 304 311 292 274 100 106 83 267 260 224 275 336 259 263 159 333 353 272 266 271 151 142 162 163 93 127 140 180 187 203 180 195 194 190 187 184 183 175 171 170 183 201 188 177 178 182 182 178 178 180 181 189 193 192 198 198 187 188 201 218 226 205 203 202 220 159 172 180 199 215 215 208 203 199 197 188 186 171 153 149 137 128 123 120 117 113 106 99
276 327 269 272 295 302 321 295 310 323 290 106 70 116 107 223 242 277 308 303 285 289 288 180 342 287 272 285 328 125 187 120 95 95 111 157 163 174 203 193 190 196 190 188 189 185 185 179 188 189 188 188 187 184 182 185 183 182 182 182 190 194 199 197 195 198 201 207 197 201 205 211 204 186 188 192 197 200 211 208 205 201 195 190 185 179 166 155 144 134 130 130 126 121 115 108 101
272 302 309 287 324 274 278 297 285 295 312 61 86 129 197 248 239 288 309 285 288 292 43 2 261 301 278 273 268 242 93 72 84 85 106 122 103 162 189 209 186 200 193 190 196 192 191 193 190 195 188 190 190 191 194 192 189 187 185 184 189 189 194 200 201 199 193 199 193 191 188 183 166 177 174 184 196 204 208 202 199 196 192 185 182 171 161 151 144 140 138 135 130 123 116 110 102
264 330 270 270 283 277 257 262 328 325 294 312 103 174 206 225 252 244 273 290 289 52 41 217 264 187 293 310 318 61 79 85 86 93 102 117 130 176 186 197 193 207 201 199 201 199 199 200 197 198 197 199 199 198 197 190 195 190 188 188 188 189 193 194 190 180 177 174 176 159 138 138 144 146 153 179 194 196 207 195 194 197 191 184 179 168 160 154 148 145 144 138 131 125 118 110 105
277 276 247 275 276 286 263 246 250 280 313 10 114 112 262 278 213 247 262 267 298 303 268 273 170 246 277 287 314 97 109 126 120 132 127 139 164 183 189 206 207 201 210 204 204 206 203 198 205 200 201 201 204 201 202 197 189 193 190 187 188 190 184 180 174 172 169 161 149 137 131 132 134 140 142 166 188 194 196 196 187 201 191 183 176 165 159 155 153 152 147 140 134 125 116 108 105
249 257 261 246 258 246 216 265 308 287 334 325 121 193 278 303 115 256 82 282 277 280 272 255 232 229 254 258 221 135 133 126 142 140 150 166 179 198 197 202 209 205 205 209 208 204 208 206 204 204 203 204 205 205 208 206 182 185 192 191 186 185 176 173 172 160 154 141 140 136 139 170 177 183 154 203 181 201 182 198 177 201 189 183 170 166 161 159 158 154 148 144 136 124 108 97 96
212 229 246 254 262 265 290 275 299 318 293 302 297 314 291 292 274 176 164 244 239 264 266 272 259 242 248 255 131 144 156 158 164 170 186 195 194 203 200 201 198 209 201 205 209 206 204 207 205 206 204 205 206 208 208 205 185 182 196 190 192 181 176 170 168 179 169 168 147 146 179 195 207 207 204 205 203 205 177 184 180 190 187 181 166 167 164 161 160 156 150 145 133 123 127 123 103
221 254 256 261 269 291 324 288 295 299 296 307 301 298 290 278 295 295 290 280 288 288 273 269 266 252 246 246 214 176 182 196 180 206 214 213 207 218 213 200 204 206 203 203 205 205 205 204 204 205 205 205 208 208 204 213 191 182 195 201 197 189 184 181 191 190 187 193 177 182 196 204 203 202 202 191 205 190 186 168 174 175 175 165 158 164 164 162 158 153 147 140 137 145 176 146 136
232 257 261 261 263 272 273 280 290 288 293 287 296 298 298 283 285 288 262 280 283 271 279 281 275 281 283 251 231 212 206 222 210 216 227 229 227 229 229 221 207 207 208 200 201 200 203 205 204 205 206 206 206 208 206 209 208 184 201 209 208 198 196 190 199 195 202 208 190 200 203 202 196 206 178 172 171 179 162 160 163 155 147 143 147 154 162 162 159 154 148 141 146 190 189 168 149
184 227 246 267 291 302 286 293 282 284 287 291 292 298 289 280 283 265 259 281 264 261 262 268 280 287 292 294 300 271 208 220 221 222 231 234 233 231 234 233 225 211 207 201 199 198 201 204 201 204 205 205 206 207 208 209 205 205 209 209 211 208 209 203 200 199 200 202 199 203 202 195 193 203 174 170 185 184 178 177 167 171 170 170 155 174 172 163 165 160 152 174 192 197 189 174 165
288 242 255 272 281 274 274 281 293 279 308 288 284 284 281 300 269 249 256 257 264 264 279 286 289 293 296 297 299 299 219 230 235 232 230 231 232 233 231 235 235 232 202 203 201 199 198 200 200 200 202 205 204 206 209 208 207 216 212 213 210 209 204 203 206 199 197 198 199 197 197 195 196 197 178 180 187 184 179 182 181 183 180 178 178 180 181 170 183 172 176 192 195 185 185 167 175
253 253 249 253 261 272 287 289 278 234 278 276 281 280 296 284 282 276 268 255 261 266 273 277 282 287 289 293 289 271 250 254 258 252 246 241 236 235 235 233 231 223 211 210 205 205 197 198 201 199 200 203 205 203 206 210 214 219 217 212 209 210 201 202 204 197 195 194 197 194 197 195 192 196 179 183 187 187 183 183 182 184 181 181 183 188 181 175 186 175 181 191 187 169 156 139 118
249 272 280 281 286 270 281 285 123 246 262 265 275 290 279 284 284 287 276 270 273 272 268 272 278 281 286 284 276 265 255 260 260 257 251 246 242 237 230 232 232 230 221 216 210 206 198 197 197 198 200 199 203 203 206 208 208 209 211 211 205 205 199 202 197 194 191 194 194 194 198 192 188 192 184 185 188 189 187 184 181 183 181 179 182 189 174 176 181 177 179 179 167 159 153 149 137
244 259 261 266 268 276 283 280 272 262 253 263 271 272 267 270 278 293 275 274 273 267 270 273 273 277 279 274 271 263 262 261 259 258 253 244 243 244 242 239 237 233 234 225 213 210 203 195 195 199 199 199 199 200 205 208 208 207 207 210 202 193 198 196 194 191 192 193 194 194 199 192 191 190 186 186 185 190 185 183 182 183 179 178 180 181 174 175 179 175 173 170 171 165 155 157 141
246 251 272 289 285 283 278 280 270 254 259 255 257 256 266 271 282 272 272 274 266 262 259 265 277 282 280 275 268 263 261 258 256 260 258 250 237 238 239 233 232 230 230 229 219 212 206 194 196 199 200 201 198 198 203 204 205 205 210 210 199 191 199 196 193 194 194 193 194 199 198 196 190 189 186 185 184 186 185 183 183 181 180 177 176 177 176 176 175 171 172 170 167 164 165 154 153
28 299 299 289 284 288 279 271 270 261 261 257 243 263 273 282 272 273 264 271 305 285 277 266 278 286 288 283 273 264 258 255 252 256 261 251 243 229 236 231 227 233 232 229 223 215 204 197 198 198 200 196 198 199 199 205 206 207 203 205 201 197 196 197 196 196 194 195 196 196 196 196 188 189 186 186 185 185 186 182 183 179 179 175 175 174 173 176 174 175 171 169 166 166 162 151 164
294 306 305 282 279 273 271 267 263 258 262 250 242 259 276 275 250 252 273 273 273 275 278 276 272 276 281 284 281 270 253 250 244 245 252 254 245 226 229 222 223 224 222 226 221 213 203 201 198 199 198 195 196 202 199 204 206 208 204 204 204 200 195 198 199 198 197 194 194 190 193 190 189 190 188 186 186 183 185 181 181 179 180 172 175 171 166 174 171 166 161 167 162 161 147 153 156
289 305 289 284 285 281 271 264 263 249 240 131 215 255 261 257 234 244 248 263 269 272 281 285 282 277 276 278 277 273 261 258 257 250 248 251 254 246 242 218 216 219 217 218 212 208 207 201 201 200 198 196 196 198 198 200 204 204 204 207 205 196 201 197 201 201 197 194 192 187 189 189 188 189 189 187 185 185 183 180 181 180 178 170 171 166 158 163 162 152 150 150 154 153 147 144 146
286 263 264 284 282 272 275 267 230 170 186 145 159 279 267 265 261 260 265 272 276 266 279 291 291 286 280 276 274 272 268 265 266 266 273 274 261 247 246 252 239 224 222 212 207 209 202 197 197 196 197 199 197 199 198 197 199 200 202 203 201 195 201 199 202 201 196 196 192 186 187 189 188 190 185 185 183 185 183 180 180 177 176 165 165 156 162 166 167 161 158 164 162 162 159 154 162
265 286 245 264 286 271 276 216 147 232 138 174 204 267 275 278 277 285 316 40 291 279 289 289 286 283 279 274 268 268 267 265 269 280 289 290 283 268 252 259 259 254 240 230 209 205 199 193 183 197 191 202 194 203 202 201 197 197 197 198 198 196 199 201 203 201 200 198 191 186 186 187 188 188 186 182 184 186 182 178 180 176 170 162 162 164 168 174 170 170 164 171 161 173 166 162 169
264 280 247 235 235 260 268 248 176 255 146 209 185 260 261 267 277 302 302 273 255 273 285 283 280 280 278 275 270 268 271 276 285 293 293 291 294 295 281 270 273 267 261 252 233 204 210 201 185 194 190 198 200 200 201 202 202 201 199 197 197 193 199 203 202 202 202 198 197 190 186 189 188 187 186 184 182 189 185 181 182 176 167 162 166 164 175 175 175 171 173 172 162 175 167 166 175
244 241 265 268 271 282 292 260 273 271 129 194 202 268 287 276 280 295 298 296 293 291 286 283 282 282 282 279 278 279 285 292 296 293 314 321 320 319 312 301 288 283 274 270 259 229 219 215 190 195 193 197 202 199 201 202 203 202 202 202 204 197 200 201 204 204 204 200 198 195 185 185 184 186 186 185 185 188 188 184 182 176 162 166 166 166 178 178 171 171 171 179 172 168 169 166 171
257 241 254 253 271 289 277 303 285 324 176 248 212 244 258 275 287 288 285 284 284 277 273 274 279 284 285 284 284 287 291 303 306 350 328 335 349 352 344 338 324 315 304 281 275 261 243 232 208 198 204 199 202 201 199 201 203 203 204 204 204 207 202 204 207 206 208 203 200 199 184 182 183 186 186 184 188 188 189 186 181 170 163 168 167 168 178 177 171 172 166 176 178 170 170 169 169
286 298 292 287 286 286 292 295 308 231 223 245 265 257 266 274 277 276 279 282 279 271 266 271 283 286 286 282 289 294 297 314 31 335 350 19 21 11 5 359 350 337 328 316 283 269 259 248 228 199 203 203 202 202 199 202 205 207 208 207 202 208 205 207 208 210 209 204 204 197 183 182 181 186 187 184 187 187 190 187 180 168 164 171 167 171 175 177 173 178 169 166 178 180 172 168 165
281 289 291 289 285 280 281 285 287 292 290 288 284 282 288 293 294 285 280 277 272 270 277 287 283 279 275 283 294 317 34 51 336 335 17 35 28 22 17 12 5 1 354 354 345 312 255 251 234 212 200 202 201 202 197 200 203 206 207 208 212 210 208 205 209 214 207 206 203 195 186 183 181 189 189 186 186 189 187 186 181 159 167 175 172 175 178 178 173 175 175 163 163 157 175 162 152
281 283 273 271 272 274 273 269 278 281 286 274 276 281 288 293 288 281 276 269 269 282 290 284 270 267 269 284 40 68 59 6 330 13 42 38 32 29 27 21 16 23 25 20 13 0 323 271 237 228 193 196 192 194 199 197 202 209 215 217 219 212 211 212 212 214 216 212 205 198 187 185 185 185 191 187 189 189 189 185 179 163 169 178 178 181 181 177 173 173 165 166 163 153 162 158 148
277 280 278 276 272 279 275 283 290 289 290 280 283 283 282 287 288 278 267 269 278 282 276 266 262 259 283 76 69 47 34 46 43 40 40 42 35 31 28 22 17 21 22 24 24 13 2 341 301 271 211 194 202 203 201 204 209 210 212 219 223 223 216 211 216 215 217 217 213 206 195 187 186 184 185 191 190 190 189 188 181 165 170 181 185 180 179 172 171 174 164 156 179 170 170 168 160
272 269 275 280 278 281 284 277 273 312 317 279 290 293 291 283 272 270 273 279 272 261 254 256 265 310 81 47 51 18 51 55 47 50 49 47 41 36 29 24 22 22 22 26 20 17 16 7 356 324 290 223 212 209 208 213 215 220 224 231 225 233 232 230 227 225 218 220 216 210 203 192 190 188 185 190 189 194 192 191 182 166 175 178 179 181 180 175 177 177 174 169 166 187 170 171 173
259 261 262 267 285 290 299 314 105 196 212 294 302 295 283 268 266 270 276 265 251 249 251 254 282 69 56 50 47 63 67 58 51 45 45 42 43 36 31 24 16 12 17 24 25 22 18 10 2 350 332 300 267 226 221 228 229 232 230 240 254 243 243 231 230 229 226 221 218 207 206 200 192 191 190 188 191 195 196 197 184 174 179 183 186 183 184 181 178 181 182 183 169 163 185 176 190
253 250 260 272 274 281 292 306 310 312 291 273 289 278 279 262 231 232 188 181 236 255 257 276 94 78 95 86 71 66 66 59 51 41 38 38 36 33 29 22 16 14 12 19 25 24 15 12 5 357 348 337 319 295 231 232 232 220 210 201 164 231 241 241 220 223 221 215 211 211 208 197 196 197 193 192 192 196 202 205 194 180 176 186 188 192 189 188 182 186 184 184 184 174 179 165 189
275 261 257 266 281 292 299 307 317 307 294 95 331 327 312 94 346 223 244 210 235 257 273 102 93 98 93 84 81 75 68 58 50 44 43 42 40 36 30 23 20 12 10 10 24 26 20 16 10 5 1 357 355 337 308 268 245 228 219 223 230 227 236 225 226 228 218 213 216 216 209 202 200 199 198 194 192 192 201 207 205 191 184 186 192 199 196 184 189 189 187 189 189 195 179 152 178
274 281 7 311 301 298 296 301 317 295 303 100 52 309 293 258 275 262 257 268 265 267 52 78 81 83 83 75 69 69 72 63 48 45 42 44 40 40 34 27 21 14 7 3 20 27 22 17 13 11 12 5 11 353 336 302 276 265 255 249 251 256 257 251 244 241 235 226 218 213 207 204 203 203 204 201 194 191 195 200 203 205 194 195 196 204 202 197 191 193 186 196 193 190 180 186 182
264 50 324 322 298 296 305 304 279 271 282 280 247 221 269 294 286 269 202 249 248 255 83 86 91 89 82 84 69 60 65 64 57 44 39 40 43 41 37 30 24 17 5 8 22 26 20 15 14 14 12 12 15 2 348 331 307 298 284 274 267 265 263 272 277 271 249 239 223 212 209 209 203 205 207 205 202 197 197 201 202 201 201 201 197 208 209 202 183 193 195 198 195 196 192 193 183
294 64 21 317 321 306 303 288 284 289 307 295 180 209 255 260 304 128 216 229 250 95 92 92 86 80 85 85 88 82 66 57 54 50 38 39 41 41 38 34 26 17 14 19 25 27 22 16 15 16 14 14 11 6 358 346 325 313 306 292 281 276 276 275 275 272 263 237 228 214 211 209 202 206 211 209 206 202 200 206 205 203 202 203 202 208 212 209 200 189 190 193 200 199 200 200 189
85 84 101 231 252 245 266 271 281 290 293 275 207 189 251 286 300 171 226 287 124 109 106 102 97 87 74 73 74 72 68 60 54 46 39 39 41 43 41 38 31 23 21 27 30 28 26 19 16 17 16 12 9 9 3 356 342 324 310 303 298 295 293 288 277 271 267 249 237 222 214 215 212 205 209 214 211 208 204 205 211 208 207 204 201 204 211 217 213 206 201 201 203 203 204 204 204
88 285 290 273 242 241 230 244 269 276 258 262 239 192 218 294 330 184 180 338 97 127 117 107 101 97 85 67 57 54 56 56 49 44 38 37 37 39 43 43 34 31 28 29 28 27 24 21 15 19 15 11 10 8 6 2 354 342 329 321 312 302 298 293 290 284 276 270 261 240 227 225 218 212 206 212 215 211 210 206 210 210 210 209 210 205 208 209 206 200 200 205 207 208 206 206 208
245 267 286 303 278 219 247 246 214 253 273 311 138 182 216 250 127 71 62 114 54 56 79 99 86 73 70 67 60 59 58 53 51 43 38 31 27 33 35 34 28 27 27 28 27 23 22 19 18 18 16 13 11 10 9 6 358 352 341 331 320 314 309 302 294 289 288 284 278 269 259 241 228 219 210 209 212 213 213 213 211 215 215 214 214 208 205 208 209 200 196 198 207 212 216 210 211
210 239 252 273 292 288 266 179 224 216 265 109 170 161 249 236 244 304 228 48 58 60 77 108 106 93 80 72 69 61 62 58 49 43 36 31 28 26 29 30 26 24 23 22 23 23 21 20 19 20 17 13 14 14 15 9 7 358 353 342 336 329 319 310 302 298 296 290 287 281 272 261 243 228 216 215 214 211 211 213 214 212 215 214 215 215 211 212 212 208 203 204 209 210 213 211 212
198 208 221 253 283 274 270 278 279 277 176 174 115 73 262 273 280 252 248 69 82 85 74 81 90 90 84 76 66 67 57 53 49 42 37 31 27 28 28 29 26 23 23 21 19 18 15 16 18 22 17 12 14 18 18 14 11 3 358 353 342 335 329 322 313 306 303 298 295 290 283 273 269 256 241 221 215 209 208 213 215 217 219 221 217 220 216 214 213 215 208 208 209 214 215 218 222
199 206 207 240 253 264 279 281 276 274 291 56 262 318 232 319 24 68 82 82 83 80 82 77 77 77 76 75 71 62 62 53 46 44 39 34 29 27 29 26 23 23 20 20 17 14 15 13 15 16 15 17 22 23 21 18 13 7 4 357 349 344 335 328 322 320 314 307 302 296 289 284 279 279 270 255 227 210 208 213 215 219 219 223 218 219 218 219 216 219 218 215 212 212 216 217 223
204 242 292 263 243 243 256 273 281 296 303 286 214 203 322 286 83 113 94 85 77 79 81 83 77 76 75 68 60 57 54 55 47 44 41 37 32 28 25 24 20 17 20 17 18 14 14 12 12 17 20 21 23 22 21 18 14 8 5 2 358 350 339 330 323 322 318 314 308 301 297 293 289 288 286 279 247 221 213 215 216 219 222 222 223 220 216 217 214 219 226 223 221 214 218 219 223
90 144 216 245 25 294 287 276 265 279 275 260 267 267 260 267 258 91 95 88 79 76 75 75 77 78 73 69 62 57 52 49 48 44 40 36 30 27 23 19 14 11 12 13 13 14 13 12 12 19 23 25 23 18 14 16 14 15 10 6 360 355 349 339 330 325 320 315 311 304 298 297 296 290 286 284 268 230 224 220 222 220 220 220 221 223 221 221 221 225 225 223 224 217 219 222 222
119 220 273 44 256 309 253 269 271 264 261 265 259 270 276 280 276 122 108 93 86 79 82 78 80 76 70 65 61 59 57 56 54 55 48 41 35 23 19 13 12 8 3 2 4 3 6 10 13 23 24 21 18 13 11 12 10 9 5 4 4 3 356 345 338 331 327 321 317 313 309 305 301 298 295 285 262 238 233 226 230 228 225 221 220 221 223 224 223 225 225 227 228 220 223 226 222
244 286 36 300 246 245 210 225 248 258 255 269 235 256 258 265 261 175 143 112 106 86 74 70 65 61 64 68 62 59 56 49 45 38 32 32 27 22 9 6 2 0 360 359 356 0 11 16 16 22 22 19 15 11 8 13 14 11 3 0 360 360 2 353 345 339 335 334 332 326 319 312 307 301 295 290 266 250 241 235 230 230 229 225 220 222 219 223 221 229 227 230 226 224 229 229 226
313 9 281 209 284 261 269 253 282 274 269 266 263 246 261 249 310 47 106 105 108 110 90 81 76 68 66 58 56 33 33 30 19 18 17 4 13 8 359 358 352 345 347 349 1 8 15 15 16 15 15 17 16 14 10 8 8 7 3 3 4 2 2 354 348 346 342 343 338 335 329 323 316 315 305 297 284 268 259 241 226 226 228 226 224 222 220 223 225 230 229 229 225 222 230 232 231
192 206 236 203 214 20 312 289 253 257 268 256 271 257 257 275 42 81 102 102 107 114 118 122 113 108 93 79 51 36 16 14 357 353 358 353 344 343 333 326 328 324 337 345 355 10 13 12 9 8 9 5 11 10 7 9 5 4 5 5 1 3 2 359 351 350 348 348 344 336 334 326 318 309 308 299 288 278 272 264 249 231 222 227 226 225 220 221 224 228 227 229 230 225 229 233 232
292 262 251 261 273 266 266 261 229 238 244 257 254 258 253 83 29 102 105 121 120 127 131 133 140 130 137 105 100 326 323 293 288 301 292 297 299 310 311 305 320 328 338 350 356 4 10 11 6 1 1 3 2 359 0 358 1 356 6 2 4 3 357 350 349 345 352 353 353 348 340 332 325 317 313 304 297 291 283 273 263 252 241 225 225 229 225 220 222 226 228 225 227 227 230 232 229